| time (UTC) | temp F | wind direction | speed MPH | gust MPH | rain 1hr in | rain 24hr in | rain mn in | humidity % | barometer mb |
| 20260504204153 | 55 | 252 | 0.0 | 3.0 | 0.00 | 0.02 | 0.02 | 100 | 1013.0 |
| 20260504203650 | 55 | 252 | 0.0 | 3.0 | 0.00 | 0.02 | 0.02 | 100 | 1013.0 |
| 20260504203148 | 55 | 252 | 0.0 | 2.0 | 0.00 | 0.02 | 0.02 | 100 | 1012.9 |
| 20260504202648 | 55 | 252 | 0.0 | 3.0 | 0.00 | 0.02 | 0.02 | 100 | 1012.8 |
| 20260504100151 | 56 | 16 | 1.0 | 3.0 | 0.00 | 0.04 | 0.01 | 100 | 1013.1 |
| 20260504090117 | 56 | 16 | 0.0 | 5.0 | 0.00 | 0.04 | 0.01 | 100 | 1012.9 |
| 20260504081601 | 59 | 28 | 3.0 | 8.0 | 0.00 | 0.04 | 0.01 | 100 | 1012.8 |
| 20260504081055 | 59 | 22 | 1.0 | 8.0 | 0.00 | 0.04 | 0.01 | 100 | 1012.7 |
| 20260504080554 | 58 | 19 | 2.0 | 8.0 | 0.00 | 0.04 | 0.01 | 100 | 1012.6 |
| 20260504050515 | 48 | 233 | 0.0 | 0.0 | 0.00 | 0.04 | 0.00 | 100 | 1011.6 |
| 20260504050018 | 48 | 233 | 0.0 | 0.0 | 0.00 | 0.04 | 0.00 | 100 | 1011.7 |
| 20260504045521 | 48 | 233 | 0.0 | 0.0 | 0.00 | 0.04 | 0.00 | 100 | 1011.6 |
| 20260504045021 | 48 | 233 | 0.0 | 0.0 | 0.00 | 0.04 | 0.00 | 100 | 1011.6 |
| 20260504044522 | 48 | 233 | 0.0 | 0.0 | 0.00 | 0.04 | 0.00 | 100 | 1011.5 |
| 20260504044025 | 48 | 233 | 0.0 | 0.0 | 0.00 | 0.04 | 0.00 | 100 | 1011.5 |
| 20260504043526 | 48 | 233 | 0.0 | 0.0 | 0.00 | 0.04 | 0.00 | 100 | 1011.4 |
| 20260504043026 | 48 | 233 | 0.0 | 0.0 | 0.00 | 0.04 | 0.00 | 100 | 1011.5 |
| 20260504042525 | 48 | 233 | 0.0 | 0.0 | 0.00 | 0.04 | 0.00 | 100 | 1011.5 |
| 20260504042018 | 48 | 233 | 0.0 | 0.0 | 0.00 | 0.04 | 0.00 | 100 | 1011.6 |
| 20260504041515 | 48 | 233 | 0.0 | 0.0 | 0.00 | 0.04 | 0.00 | 100 | 1011.5 |
| 20260504041017 | 48 | 233 | 0.0 | 0.0 | 0.00 | 0.04 | 0.00 | 100 | 1011.5 |
| 20260504040514 | 48 | 233 | 0.0 | 0.0 | 0.00 | 0.04 | 0.00 | 100 | 1011.5 |
| 20260504040018 | 48 | 233 | 0.0 | 0.0 | 0.00 | 0.04 | 0.00 | 100 | 1011.4 |
| 20260504035520 | 48 | 233 | 0.0 | 0.0 | 0.00 | 0.04 | 0.00 | 100 | 1011.5 |
| 20260504035020 | 49 | 233 | 0.0 | 0.0 | 0.00 | 0.04 | 0.00 | 100 | 1011.6 |
| 20260504034518 | 49 | 233 | 0.0 | 0.0 | 0.00 | 0.04 | 0.00 | 100 | 1011.7 |
| 20260504034021 | 49 | 233 | 0.0 | 0.0 | 0.00 | 0.04 | 0.00 | 100 | 1011.8 |
| 20260504033516 | 49 | 233 | 0.0 | 0.0 | 0.00 | 0.04 | 0.00 | 100 | 1011.8 |
| 20260504033018 | 49 | 233 | 0.0 | 0.0 | 0.00 | 0.04 | 0.00 | 100 | 1011.9 |
| 20260504032520 | 49 | 233 | 0.0 | 0.0 | 0.00 | 0.04 | 0.00 | 100 | 1011.8 |
| 20260504032023 | 49 | 233 | 0.0 | 0.0 | 0.00 | 0.04 | 0.00 | 100 | 1011.8 |
| 20260504031521 | 49 | 233 | 0.0 | 0.0 | 0.00 | 0.04 | 0.00 | 100 | 1011.8 |
| 20260504031021 | 49 | 233 | 0.0 | 0.0 | 0.00 | 0.04 | 0.00 | 100 | 1011.8 |
| 20260504030516 | 49 | 233 | 0.0 | 0.0 | 0.00 | 0.04 | 0.00 | 100 | 1011.9 |
| 20260504030016 | 49 | 233 | 0.0 | 0.0 | 0.00 | 0.04 | 0.00 | 100 | 1011.7 |
| 20260504025512 | 49 | 233 | 0.0 | 0.0 | 0.00 | 0.04 | 0.00 | 100 | 1011.7 |
| 20260504025011 | 50 | 233 | 0.0 | 0.0 | 0.00 | 0.04 | 0.00 | 100 | 1011.8 |
| 20260504024508 | 50 | 233 | 0.0 | 0.0 | 0.00 | 0.04 | 0.00 | 100 | 1011.9 |
| 20260504024006 | 50 | 233 | 0.0 | 0.0 | 0.00 | 0.04 | 0.00 | 100 | 1011.8 |
| 20260504023504 | 50 | 233 | 0.0 | 0.0 | 0.00 | 0.04 | 0.00 | 100 | 1011.7 |
| 20260504023002 | 50 | 233 | 0.0 | 0.0 | 0.00 | 0.04 | 0.00 | 100 | 1011.8 |
| 20260504022000 | 50 | 233 | 0.0 | 0.0 | 0.00 | 0.04 | 0.00 | 100 | 1011.8 |